SCP
0 0 0 0 0 0 0 0 0 0 0 0 0 0 0 0 0 0 0 0 0 0 0 0 0 0 0 0 0 0 0 0 0 0 0 0 0 0 0 0 0 0 0
0 0 0 0 0 0 0 0 0 0 0 0 0 0 0 0 0 0 0 0 0 0 0 0 0 0 0 0 0 0 0 0 0 0 0 0 0 0 0 0 0 0 0
0 0 0 0 0 0 0 0 0 0 0 0 0 0 0 0 0 0 0 0 0 0 0 0 0 0 0 0 0 0 0 0 0 0 0 0 0 0 0 0 0 0 0
0 0 0 0 0 0 0 0 0 0 0 0 0 0 0 0 0 0 0 0 0 0 0 0 0 0 0 0 0 0 0 0 0 0 0 0 0 0 0 0 0 0 0
0 0 0 0 0 0 0 0 0 0 0 0 0 0 0 0 0 0 0 0 0 0 0 0 0 0 0 0 0 0 0 0 0 0 0 0 0 0 0 0 0 0 0
0 0 0 0 0 0 0 0 0 0 0 0 0 0 0 0 0 0 0 0 0 0 0 0 0 0 0 0 0 0 0 0 0 0 0 0 0 0 0 0 0 0 0
0 0 0 0 0 0 0 0 0 0 0 0 0 0 0 0 0 0 0 0 0 0 0 0 0 0 0 0 0 0 0 0 0 0 0 0 0 0 0 0 0 0 0
0 0 0 0 0 0 0 0 0 0 0 0 0 0 0 0 0 0 0 0 0 0 0 0 0 0 0 0 0 0 0 0 0 0 0 0 0 0 0 0 0 0 0
0 0 0 0 0 0 0 0 0 0 0 0 0 0 0 0 0 0 0 0 0 0 0 0 0 0 0 0 0 0 0 0 0 0 0 0 0 0 0 0 0 0 0
0 0 0 0 0 0 0 0 0 0 0 0 0 0 0 0 0 0 0 0 0 0 0 0 0 0 0 0 0 0 0 0 0 0 0 0 0 0 0 0 0 0 0
0 0 0 0 0 0 0 0 0 0 0 0 0 0 0 0 0 0 0 0 0 0 0 0 0 0 0 0 0 0 0 0 0 0 0 0 0 0 0 0 0 0 0
0 0 0 0 0 0 0 0 0 0 0 0 0 0 0 0 0 0 0 0 0 0 0 0 0 0 0 0 0 0 0 0 0 0 0 0 0 0 0 0 0 0 0
0 0 0 0 0 0 0 0 0 0 0 0 0 0 0 0 0 0 0 0 0 0 0 0 0 0 0 0 0 0 0 0 0 0 0 0 0 0 0 0 0 0 0
0 0 0 0 0 0 0 0 0 0 0 0 0 0 0 0 0 0 0 0 0 0 0 0 0 0 0 0 0 0 0 0 0 0 0 0 0 0 0 0 0 0 0
0 0 0 0 0 0 0 0 0 0 0 0 0 0 0 0 0 0 0 0 0 0 0 0 0 0 0 0 0 0 0 0 0 0 0 0 0 0 0 0 0 0 0
0 0 0 0 0 0 0 0 0 0 0 0 0 0 0 0 0 0 0 0 0 0 0 0 0 0 0 0 0 0 0 0 0 0 0 0 0 0 0 0 0 0 0
0 0 0 0 0 0 0 0 0 0 0 0 0 0 0 0 0 0 0 0 0 0 0 0 0 0 0 0 0 0 0 0 0 0 0 0 0 0 0 0 0 -0 0
0 0 0 0 0 0 0 0 0 0 0 0 0 0 0 0 0 0 0 0 0 0 0 0 0 0 0 0 0 0 0 0 0 0 0 0 0 0 0 0 -0 0 0
0 0 0 0 0 0 0 0 0 0 0 0 0 0 0 0 0 0 0 0 0 0 0 0 0 0 0 0 0 0 0 0 0 0 0 0 0 0 0 0 0 0 0
0 0 0 0 0 0 0 0 0 0 0 0 0 0 0 0 0 0 0 0 0 0 0 0 0 0 0 0 0 0 0 0 0 0 0 0 0 0 0 0 0 0 0
0 0 0 0 0 0 0 0 0 0 0 0 0 0 0 0 0 0 0 0 0 0 0 0 0 0 0 0 0 0 0 0 0 0 -0 -0 -0 -0 -0 -0 -0 0 0
0 0 0 0 0 0 0 0 0 0 0 0 0 0 0 0 0 0 0 0 0 0 0 0 0 0 0 0 0 0 0 0 0 -0 -0 -0 -0 -0 -0 -0 -0 -0 0
0 0 0 0 0 0 0 0 0 0 0 0 0 0 0 0 0 0 0 0 0 0 0 0 0 0 0 0 0 0 0 0 0 -0 -0 -0 -0 -0 -0 -0 -0 -0 0
0 0 0 0 0 0 0 0 0 0 0 0 0 0 0 0 0 0 0 0 0 0 0 0 0 0 0 0 0 0 0 0 -0 -0 -0 -0 -0 -0 -0 -0 0 0 0
0 0 0 0 0 0 0 0 0 0 0 0 0 0 0 0 0 0 0 0 0 0 0 0 0 0 0 0 0 0 0 0 -0 -0 -0 -0 -0 -0 -0 -0 0 0 0
0 0 0 0 0 0 0 0 0 0 0 0 0 0 0 0 0 0 0 0 0 0 0 0 0 0 0 0 0 0 0 0 0 -0 -0 -0 -0 0 -0 0 0 0 0
Wind_Speed_500mb
42 39 36 36 34 34 31 29 27 25 22 19 17 14 11 9 8 8 8 10 13 15 17 18 20 21 22 23 23 23 23 23 23 24 25 25 26 28 29 31 31 32 34
46 45 42 42 40 37 34 30 26 25 23 20 17 14 12 10 11 13 14 15 17 19 21 21 22 23 23 24 25 25 24 25 26 26 26 27 27 28 28 29 31 31 32
51 46 48 46 44 40 37 35 32 28 24 21 19 17 15 15 15 17 18 19 21 22 22 23 23 23 22 22 21 22 23 23 24 25 26 28 29 28 27 29 29 31 32
57 53 52 49 46 45 42 39 34 30 27 24 22 19 18 18 18 18 19 20 21 21 18 15 13 12 13 14 15 16 19 22 25 28 30 31 31 29 27 27 26 28 30
56 64 59 53 50 49 46 41 38 34 31 28 24 21 19 18 20 20 19 19 18 10 6 3 4 5 7 9 12 15 20 24 28 29 30 29 29 29 30 28 27 28 30
53 63 63 58 56 53 49 47 43 38 34 30 26 22 21 22 22 20 18 12 7 5 3 1 3 9 11 14 16 18 20 23 24 24 26 27 27 28 30 28 27 26 28
54 59 62 61 61 57 51 47 45 43 39 34 29 25 24 23 21 18 12 11 9 7 6 5 8 12 13 15 18 17 19 19 21 23 24 28 30 29 27 26 25 26 27
59 58 63 65 64 60 56 54 53 48 42 39 31 26 15 23 22 17 15 13 12 11 11 10 14 15 16 17 16 15 17 18 19 24 27 27 27 27 25 25 25 27 26
68 64 63 66 65 60 60 58 56 52 48 45 41 27 15 14 19 18 15 14 15 15 13 15 18 17 16 14 16 15 13 20 24 22 22 24 25 25 25 24 24 26 27
78 70 65 63 64 63 63 60 57 55 51 50 45 45 40 20 16 16 19 15 13 12 12 14 17 16 11 12 10 13 22 22 19 19 19 20 22 24 26 26 25 24 25
89 82 75 71 71 68 63 61 60 58 58 55 53 47 47 44 36 23 20 26 22 17 14 17 16 13 10 10 11 21 18 16 16 16 16 19 22 24 26 26 26 26 28
98 93 85 83 77 74 70 65 59 58 59 57 56 53 51 49 48 43 36 29 25 20 18 17 15 14 11 11 16 16 13 13 13 14 17 20 22 23 23 23 24 25 27
111 108 98 93 88 81 75 71 68 64 61 60 56 57 51 48 42 35 36 36 35 30 24 22 19 17 14 13 14 10 8 8 11 14 16 18 20 21 21 22 24 25 25
114 108 104 100 94 86 81 75 72 70 63 58 57 55 49 46 44 40 37 39 32 32 34 27 22 21 15 14 8 4 3 6 9 12 14 16 18 20 22 25 26 25 26
109 108 106 103 100 96 88 82 77 72 68 61 59 56 51 46 45 43 42 40 37 33 38 32 25 23 16 11 6 3 2 5 8 12 14 17 21 23 25 25 24 24 24
104 102 99 94 97 100 96 91 87 76 69 67 63 61 56 50 47 46 44 41 40 35 28 32 31 25 18 13 10 7 8 12 12 14 17 19 21 21 21 21 21 23 23
102 104 96 90 87 89 96 93 93 84 77 70 69 66 60 54 50 48 46 43 42 41 37 36 31 26 25 21 15 14 15 15 14 16 16 17 17 17 17 17 18 19 19
95 99 95 89 85 83 81 88 91 90 83 78 74 71 65 58 55 50 48 47 43 42 40 38 29 31 30 23 20 17 17 17 15 14 13 14 13 13 13 14 15 16 17
98 96 96 92 89 85 83 80 83 87 84 77 76 73 69 61 60 55 52 50 47 44 41 39 37 40 35 29 27 24 21 19 17 13 11 11 11 12 13 14 16 16 16
102 100 98 95 91 86 83 76 79 84 82 84 73 68 67 64 61 57 54 53 50 46 43 42 42 46 40 38 33 27 26 22 18 15 11 12 14 14 15 16 15 15 12
101 101 96 97 92 88 84 79 80 77 78 80 73 67 67 61 57 54 55 56 55 48 48 50 50 54 47 46 42 37 30 25 21 17 14 13 13 14 17 18 18 15 12
94 100 97 98 96 90 86 79 78 75 74 76 72 68 64 58 56 55 54 53 46 47 52 57 63 58 53 50 46 41 36 30 24 19 16 13 13 13 13 15 16 12 9
91 98 97 98 96 88 87 79 77 77 74 67 67 70 65 62 59 60 59 51 47 46 42 50 59 56 55 51 48 45 38 31 27 24 19 13 12 11 12 15 13 8 5
92 98 96 96 91 90 81 78 76 77 73 71 66 65 67 65 67 66 61 60 56 56 53 53 49 50 50 52 44 40 41 38 32 25 20 12 12 10 11 12 11 7 3
89 95 95 93 90 88 80 80 81 82 78 77 68 67 68 66 65 63 61 63 60 61 59 56 55 55 56 53 52 52 48 42 35 27 21 15 11 10 9 9 10 12 12
85 87 90 88 87 84 80 86 86 87 84 81 75 71 65 62 61 60 62 65 72 74 74 73 69 66 63 58 55 50 42 39 33 25 20 15 11 6 3 7 8 12 14
Wind_Direction_500mb
199 202 200 200 195 188 181 177 174 175 174 176 176 177 188 205 227 255 267 272 278 283 285 287 289 293 296 300 304 308 312 312 312 313 314 317 319 319 320 319 319 319 319
205 204 209 202 199 194 190 185 188 187 187 190 193 199 208 230 248 264 272 277 281 283 284 285 286 287 291 295 300 304 306 307 309 310 313 315 316 315 314 315 316 315 314
209 209 207 203 201 200 199 198 198 198 200 205 209 213 227 239 252 262 272 279 282 282 283 285 287 287 288 289 295 300 303 305 308 314 316 318 318 318 316 316 315 311 310
214 211 213 211 208 205 206 206 207 209 211 215 222 228 238 247 257 267 274 279 281 284 287 286 286 294 294 293 296 297 299 304 309 310 313 314 316 319 319 319 316 318 317
214 214 216 218 217 212 211 211 213 216 220 224 229 238 247 255 261 268 274 277 279 279 284 257 292 318 329 317 304 299 302 306 310 315 317 320 323 324 325 329 331 329 327
216 215 217 219 221 219 216 215 216 220 224 227 232 239 248 258 266 272 279 272 231 232 219 272 338 328 320 310 301 303 307 311 315 319 322 326 329 330 329 335 340 336 335
222 219 219 219 221 222 221 221 220 221 224 227 232 237 249 253 253 270 246 226 206 211 210 250 309 317 319 308 304 310 308 313 318 323 326 329 329 331 340 351 352 350 346
228 226 223 220 222 222 220 222 224 223 223 226 229 230 236 243 244 232 231 218 211 227 242 264 304 319 317 309 308 311 312 315 321 325 327 327 329 336 348 359 360 358 355
232 228 227 225 225 224 225 226 227 227 227 228 227 218 202 210 195 210 207 216 231 236 251 282 302 309 311 306 310 315 323 321 320 326 330 333 335 338 348 1 7 8 0
230 231 230 229 229 228 227 227 228 229 230 232 226 226 228 219 195 190 206 207 217 229 256 275 281 292 289 300 299 307 319 320 328 336 340 338 343 348 350 356 14 18 12
229 229 230 231 229 229 230 229 229 228 232 233 234 234 231 227 224 210 196 204 203 220 242 269 284 275 287 294 292 315 318 331 340 343 349 355 359 360 1 4 10 22 25
228 229 230 232 234 235 233 233 233 234 236 236 238 238 238 234 233 226 217 207 205 204 239 260 262 269 280 278 300 316 334 338 347 357 3 5 7 8 8 8 13 22 35
229 231 229 230 233 234 238 236 235 235 234 236 237 239 238 238 238 234 226 210 200 201 213 234 245 246 264 277 302 315 334 346 1 7 12 18 20 21 21 21 27 44 41
236 235 235 233 234 237 238 238 240 238 235 236 236 236 235 235 236 234 232 218 199 200 212 226 225 236 244 277 272 291 360 14 14 28 39 41 40 39 37 35 36 46 40
236 238 236 236 236 238 237 238 240 238 235 233 233 233 234 235 238 235 231 228 221 205 208 217 211 222 241 241 222 175 77 65 70 68 64 58 53 48 45 39 35 32 28
239 238 239 237 236 237 237 237 238 238 235 233 231 230 233 233 233 234 233 230 226 223 210 214 205 210 221 202 195 166 136 113 94 78 67 61 56 53 49 42 33 27 23
240 239 237 237 235 235 234 235 237 237 235 231 230 230 233 234 232 230 230 229 227 223 219 214 197 204 198 181 182 160 135 115 97 80 75 71 67 63 53 41 32 26 23
233 241 239 236 234 232 233 234 233 234 231 231 229 228 231 231 231 228 226 228 226 225 222 219 203 196 189 176 169 156 133 119 106 96 92 84 78 66 49 31 24 22 26
232 234 240 237 233 232 233 231 233 233 231 231 230 229 229 230 230 227 223 222 222 223 222 222 205 193 187 178 166 159 150 139 129 114 100 90 75 50 30 21 25 24 31
231 235 235 239 235 234 233 231 231 232 230 231 228 229 229 230 230 228 222 220 219 219 214 208 202 193 186 174 170 170 159 154 141 118 99 81 65 52 43 35 29 31 47
232 235 235 233 236 233 232 229 229 228 230 230 228 226 228 228 228 227 223 218 217 213 209 202 196 190 185 176 172 170 166 154 147 133 115 100 87 65 52 46 47 49 67
232 232 233 232 230 232 231 228 226 224 225 225 226 227 227 225 221 218 219 221 225 219 209 201 197 190 182 176 171 172 166 157 145 141 124 109 98 83 67 59 65 74 79
231 232 232 233 232 231 229 225 221 220 222 222 230 226 223 219 215 212 213 215 214 209 215 214 197 187 179 171 167 166 162 159 146 140 134 124 112 99 76 60 63 81 83
230 231 232 232 233 231 230 224 220 220 218 218 224 229 224 218 211 210 208 208 206 204 199 197 196 185 178 169 170 160 157 156 153 149 146 146 135 108 80 55 45 46 14
230 231 233 233 231 230 228 222 217 215 217 216 218 223 221 217 214 209 209 207 205 202 191 186 183 187 178 176 172 167 165 164 160 160 158 143 145 137 80 51 23 13 351
231 230 232 232 233 230 225 219 216 215 213 217 212 211 213 214 214 214 211 209 203 196 187 181 181 183 182 178 177 172 174 169 166 164 167 158 131 120 181 23 14 1 344
Wind_Speed_850mb
42 39 36 36 34 34 31 29 27 25 22 19 17 14 11 9 8 8 8 10 13 15 17 18 20 21 22 23 23 23 23 23 23 24 25 25 26 28 29 31 31 32 34
46 45 42 42 40 37 34 30 26 25 23 20 17 14 12 10 11 13 14 15 17 19 21 21 22 23 23 24 25 25 24 25 26 26 26 27 27 28 28 29 31 31 32
51 46 48 46 44 40 37 35 32 28 24 21 19 17 15 15 15 17 18 19 21 22 22 23 23 23 22 22 21 22 23 23 24 25 26 28 29 28 27 29 29 31 32
57 53 52 49 46 45 42 39 34 30 27 24 22 19 18 18 18 18 19 20 21 21 18 15 13 12 13 14 15 16 19 22 25 28 30 31 31 29 27 27 26 28 30
56 64 59 53 50 49 46 41 38 34 31 28 24 21 19 18 20 20 19 19 18 10 6 3 4 5 7 9 12 15 20 24 28 29 30 29 29 29 30 28 27 28 30
53 63 63 58 56 53 49 47 43 38 34 30 26 22 21 22 22 20 18 12 7 5 3 1 3 9 11 14 16 18 20 23 24 24 26 27 27 28 30 28 27 26 28
54 59 62 61 61 57 51 47 45 43 39 34 29 25 24 23 21 18 12 11 9 7 6 5 8 12 13 15 18 17 19 19 21 23 24 28 30 29 27 26 25 26 27
59 58 63 65 64 60 56 54 53 48 42 39 31 26 15 23 22 17 15 13 12 11 11 10 14 15 16 17 16 15 17 18 19 24 27 27 27 27 25 25 25 27 26
68 64 63 66 65 60 60 58 56 52 48 45 41 27 15 14 19 18 15 14 15 15 13 15 18 17 16 14 16 15 13 20 24 22 22 24 25 25 25 24 24 26 27
78 70 65 63 64 63 63 60 57 55 51 50 45 45 40 20 16 16 19 15 13 12 12 14 17 16 11 12 10 13 22 22 19 19 19 20 22 24 26 26 25 24 25
89 82 75 71 71 68 63 61 60 58 58 55 53 47 47 44 36 23 20 26 22 17 14 17 16 13 10 10 11 21 18 16 16 16 16 19 22 24 26 26 26 26 28
98 93 85 83 77 74 70 65 59 58 59 57 56 53 51 49 48 43 36 29 25 20 18 17 15 14 11 11 16 16 13 13 13 14 17 20 22 23 23 23 24 25 27
111 108 98 93 88 81 75 71 68 64 61 60 56 57 51 48 42 35 36 36 35 30 24 22 19 17 14 13 14 10 8 8 11 14 16 18 20 21 21 22 24 25 25
114 108 104 100 94 86 81 75 72 70 63 58 57 55 49 46 44 40 37 39 32 32 34 27 22 21 15 14 8 4 3 6 9 12 14 16 18 20 22 25 26 25 26
109 108 106 103 100 96 88 82 77 72 68 61 59 56 51 46 45 43 42 40 37 33 38 32 25 23 16 11 6 3 2 5 8 12 14 17 21 23 25 25 24 24 24
104 102 99 94 97 100 96 91 87 76 69 67 63 61 56 50 47 46 44 41 40 35 28 32 31 25 18 13 10 7 8 12 12 14 17 19 21 21 21 21 21 23 23
102 104 96 90 87 89 96 93 93 84 77 70 69 66 60 54 50 48 46 43 42 41 37 36 31 26 25 21 15 14 15 15 14 16 16 17 17 17 17 17 18 19 19
95 99 95 89 85 83 81 88 91 90 83 78 74 71 65 58 55 50 48 47 43 42 40 38 29 31 30 23 20 17 17 17 15 14 13 14 13 13 13 14 15 16 17
98 96 96 92 89 85 83 80 83 87 84 77 76 73 69 61 60 55 52 50 47 44 41 39 37 40 35 29 27 24 21 19 17 13 11 11 11 12 13 14 16 16 16
102 100 98 95 91 86 83 76 79 84 82 84 73 68 67 64 61 57 54 53 50 46 43 42 42 46 40 38 33 27 26 22 18 15 11 12 14 14 15 16 15 15 12
101 101 96 97 92 88 84 79 80 77 78 80 73 67 67 61 57 54 55 56 55 48 48 50 50 54 47 46 42 37 30 25 21 17 14 13 13 14 17 18 18 15 12
94 100 97 98 96 90 86 79 78 75 74 76 72 68 64 58 56 55 54 53 46 47 52 57 63 58 53 50 46 41 36 30 24 19 16 13 13 13 13 15 16 12 9
91 98 97 98 96 88 87 79 77 77 74 67 67 70 65 62 59 60 59 51 47 46 42 50 59 56 55 51 48 45 38 31 27 24 19 13 12 11 12 15 13 8 5
92 98 96 96 91 90 81 78 76 77 73 71 66 65 67 65 67 66 61 60 56 56 53 53 49 50 50 52 44 40 41 38 32 25 20 12 12 10 11 12 11 7 3
89 95 95 93 90 88 80 80 81 82 78 77 68 67 68 66 65 63 61 63 60 61 59 56 55 55 56 53 52 52 48 42 35 27 21 15 11 10 9 9 10 12 12
85 87 90 88 87 84 80 86 86 87 84 81 75 71 65 62 61 60 62 65 72 74 74 73 69 66 63 58 55 50 42 39 33 25 20 15 11 6 3 7 8 12 14
Wind_Direction_850mb
199 202 200 200 195 188 181 177 174 175 174 176 176 177 188 205 227 255 267 272 278 283 285 287 289 293 296 300 304 308 312 312 312 313 314 317 319 319 320 319 319 319 319
205 204 209 202 199 194 190 185 188 187 187 190 193 199 208 230 248 264 272 277 281 283 284 285 286 287 291 295 300 304 306 307 309 310 313 315 316 315 314 315 316 315 314
209 209 207 203 201 200 199 198 198 198 200 205 209 213 227 239 252 262 272 279 282 282 283 285 287 287 288 289 295 300 303 305 308 314 316 318 318 318 316 316 315 311 310
214 211 213 211 208 205 206 206 207 209 211 215 222 228 238 247 257 267 274 279 281 284 287 286 286 294 294 293 296 297 299 304 309 310 313 314 316 319 319 319 316 318 317
214 214 216 218 217 212 211 211 213 216 220 224 229 238 247 255 261 268 274 277 279 279 284 257 292 318 329 317 304 299 302 306 310 315 317 320 323 324 325 329 331 329 327
216 215 217 219 221 219 216 215 216 220 224 227 232 239 248 258 266 272 279 272 231 232 219 272 338 328 320 310 301 303 307 311 315 319 322 326 329 330 329 335 340 336 335
222 219 219 219 221 222 221 221 220 221 224 227 232 237 249 253 253 270 246 226 206 211 210 250 309 317 319 308 304 310 308 313 318 323 326 329 329 331 340 351 352 350 346
228 226 223 220 222 222 220 222 224 223 223 226 229 230 236 243 244 232 231 218 211 227 242 264 304 319 317 309 308 311 312 315 321 325 327 327 329 336 348 359 360 358 355
232 228 227 225 225 224 225 226 227 227 227 228 227 218 202 210 195 210 207 216 231 236 251 282 302 309 311 306 310 315 323 321 320 326 330 333 335 338 348 1 7 8 0
230 231 230 229 229 228 227 227 228 229 230 232 226 226 228 219 195 190 206 207 217 229 256 275 281 292 289 300 299 307 319 320 328 336 340 338 343 348 350 356 14 18 12
229 229 230 231 229 229 230 229 229 228 232 233 234 234 231 227 224 210 196 204 203 220 242 269 284 275 287 294 292 315 318 331 340 343 349 355 359 360 1 4 10 22 25
228 229 230 232 234 235 233 233 233 234 236 236 238 238 238 234 233 226 217 207 205 204 239 260 262 269 280 278 300 316 334 338 347 357 3 5 7 8 8 8 13 22 35
229 231 229 230 233 234 238 236 235 235 234 236 237 239 238 238 238 234 226 210 200 201 213 234 245 246 264 277 302 315 334 346 1 7 12 18 20 21 21 21 27 44 41
236 235 235 233 234 237 238 238 240 238 235 236 236 236 235 235 236 234 232 218 199 200 212 226 225 236 244 277 272 291 360 14 14 28 39 41 40 39 37 35 36 46 40
236 238 236 236 236 238 237 238 240 238 235 233 233 233 234 235 238 235 231 228 221 205 208 217 211 222 241 241 222 175 77 65 70 68 64 58 53 48 45 39 35 32 28
239 238 239 237 236 237 237 237 238 238 235 233 231 230 233 233 233 234 233 230 226 223 210 214 205 210 221 202 195 166 136 113 94 78 67 61 56 53 49 42 33 27 23
240 239 237 237 235 235 234 235 237 237 235 231 230 230 233 234 232 230 230 229 227 223 219 214 197 204 198 181 182 160 135 115 97 80 75 71 67 63 53 41 32 26 23
233 241 239 236 234 232 233 234 233 234 231 231 229 228 231 231 231 228 226 228 226 225 222 219 203 196 189 176 169 156 133 119 106 96 92 84 78 66 49 31 24 22 26
232 234 240 237 233 232 233 231 233 233 231 231 230 229 229 230 230 227 223 222 222 223 222 222 205 193 187 178 166 159 150 139 129 114 100 90 75 50 30 21 25 24 31
231 235 235 239 235 234 233 231 231 232 230 231 228 229 229 230 230 228 222 220 219 219 214 208 202 193 186 174 170 170 159 154 141 118 99 81 65 52 43 35 29 31 47
232 235 235 233 236 233 232 229 229 228 230 230 228 226 228 228 228 227 223 218 217 213 209 202 196 190 185 176 172 170 166 154 147 133 115 100 87 65 52 46 47 49 67
232 232 233 232 230 232 231 228 226 224 225 225 226 227 227 225 221 218 219 221 225 219 209 201 197 190 182 176 171 172 166 157 145 141 124 109 98 83 67 59 65 74 79
231 232 232 233 232 231 229 225 221 220 222 222 230 226 223 219 215 212 213 215 214 209 215 214 197 187 179 171 167 166 162 159 146 140 134 124 112 99 76 60 63 81 83
230 231 232 232 233 231 230 224 220 220 218 218 224 229 224 218 211 210 208 208 206 204 199 197 196 185 178 169 170 160 157 156 153 149 146 146 135 108 80 55 45 46 14
230 231 233 233 231 230 228 222 217 215 217 216 218 223 221 217 214 209 209 207 205 202 191 186 183 187 178 176 172 167 165 164 160 160 158 143 145 137 80 51 23 13 351
231 230 232 232 233 230 225 219 216 215 213 217 212 211 213 214 214 214 211 209 203 196 187 181 181 183 182 178 177 172 174 169 166 164 167 158 131 120 181 23 14 1 344